Weather in Basarabeasca

Moldova     46˚19′47″N   28˚58′38″E
temp.,
°C
wind,
m/s
gust,
m/s
humid.,
%
clouds,
%
prec.,
mm/h
press.,
hPa
HPBL,
m
27 november, fri
fri2723:00+3˚s34650 0.0 102450
02:00+2˚s34880 0.0 102354
05:00+1˚s23870 0.0 102227
08:00+1˚sw23820 0.0 102234
11:00+6˚sw45610 0.0 1022354
14:00+8˚sw34490 0.0 1020438
17:00+4˚w12610 0.0 102022
20:00+3˚nw11650 0.0 102022
28 november, sat
sat2823:00+2˚nnw126619 0.0 102022
02:00+2˚n126559 0.0 102022
05:00+1˚n2267100 0.0 101922
08:00+1˚nne2270100 0.0 102022
11:00+5˚ne225531 0.0 1019328
14:00+7˚ne215039 0.0 1018490
17:00+4˚ne226482 0.0 101722
20:00+3˚ne117291 0.0 101822
29 november, sun
sun2923:00+2˚nne1173100 0.0 101722
02:00+1˚n1279100 0.0 101822
05:00+2˚nnw128099 0.0 101722
08:00+2˚nnw3589100 0.2 1018170
11:00+4˚nnw3480100 0.0 1019421
14:00+5˚nnw3480100 0.0 1019534
17:00+4˚nne4583100 0.0 1020337
20:00+1˚n368584 0.0 1021162
30 november, mon
mon3023:00+1˚n358440 0.0 1021136
02:00n368370 0.0 1022157
05:00+1˚nne4778100 0.0 1022267
08:00+1˚nne4779100 0.1 1023331
11:00+1˚n6895100 1.1 1024371
14:00+1˚n71096100 2.3 1023453
17:00n81296100 1.4 1024532
20:00n81394100 2.4 1026596
1 december, tue
tue123:00n71393100 0.4 1026567
02:00n7138998 0.6 1026548
05:00n7129398 0.1 1026541
08:00−1˚n7129299 0.4 1026501
11:00nnw71093100 0.3 1025455
14:00+1˚n699397 0.4 1024514
17:00n4896100 0.1 1024403
20:00nnw359699 0.2 1024225